Location: Unspecified
(0.0000°N, 0.0000°E)
Time: 19:55:49
(UTC+00:00)

Vanguard 2 Rocket - All Passes

Search period start: 03 May 2015 00:00
Search period end: 13 May 2015 00:00
Orbit: 555 x 3332 km, 32.9° (Epoch: 03 May)

Date Brightness Start Highest point End Pass type
(mag) Time Alt. Az. Time Alt. Az. Time Alt. Az.
03 May - 00:36:02 10° NW 00:56:30 81° NE 01:10:31 10° ESE visible
03 May - 02:57:39 10° WNW 03:13:26 40° SW 03:23:08 10° SSE visible
03 May - 12:14:12 10° SSW 12:18:10 38° SE 12:23:46 10° ENE daylight
03 May - 14:26:41 10° W 14:31:53 33° NNW 14:40:02 10° NE daylight
03 May - 16:44:17 10° NW 16:49:28 15° N 16:55:48 10° NNE daylight
03 May - 19:03:27 10° NNW 19:10:56 15° N 19:20:20 10° NE visible
03 May - 21:18:48 10° NNW 21:33:53 30° NNE 21:50:16 10° E visible
03 May - 23:34:51 10° NW 23:55:05 64° NNE 00:10:54 10° ESE visible
04 May - 01:54:28 10° WNW 02:13:17 57° SW 02:25:08 10° SE visible
04 May - 04:21:47 10° WSW 04:29:37 16° SW 04:34:55 10° S visible
04 May - 11:17:13 10° S 11:19:51 17° SE 11:22:59 10° E daylight
04 May - 13:28:08 10° WSW 13:32:45 49° NNW 13:40:05 10° NE daylight
04 May - 15:44:12 10° NW 15:48:54 16° NNW 15:54:52 10° NNE daylight
04 May - 18:04:08 10° NNW 18:08:54 12° N 18:14:40 10° NNE visible
04 May - 20:19:14 10° NNW 20:31:27 23° NNE 20:46:19 10° ENE visible
04 May - 22:34:17 10° NW 22:53:14 51° NNE 23:10:26 10° ESE visible
05 May - 00:52:09 10° WNW 01:12:36 77° SW 01:26:33 10° SE visible
05 May - 03:16:10 10° W 03:29:34 27° SW 03:38:14 10° SSE visible
05 May - 12:29:57 10° SW 12:34:08 89° NW 12:40:18 10° NE daylight
05 May - 14:44:32 10° WNW 14:48:55 19° NNW 14:54:47 10° NNE daylight
05 May - 17:05:05 10° NNW 17:07:25 11° N 17:09:59 10° NNE daylight
05 May - 19:20:10 10° NNW 19:29:08 17° NNE 19:40:48 10° NE visible
05 May - 21:34:17 10° NNW 21:51:08 40° NNE 22:08:52 10° E visible
05 May - 23:50:37 10° NW 00:11:23 85° NE 00:27:20 10° ESE visible
06 May - 02:11:56 10° WNW 02:29:16 41° SW 02:40:33 10° SSE visible
06 May - 11:32:06 10° SW 11:35:51 41° SE 11:40:32 10° ENE daylight
06 May - 13:45:18 10° WNW 13:49:26 24° NNW 13:55:14 10° NNE daylight
06 May - 16:06:05 10° N 16:06:33 10° N 16:06:53 10° N daylight
06 May - 18:21:49 10° N 18:27:08 13° NNE 18:34:02 10° NE visible
06 May - 20:34:50 10° NNW 20:48:59 30° NNE 21:05:56 10° E visible
06 May - 22:49:50 10° NW 23:09:44 68° NE 23:27:23 10° ESE visible
07 May - 01:08:52 10° WNW 01:28:35 57° SW 01:42:13 10° SE visible
07 May - 03:36:05 10° WSW 03:46:08 18° SSW 03:52:57 10° S visible
07 May - 10:34:43 10° SSW 10:37:30 18° SE 10:40:30 10° E daylight
07 May - 12:46:28 10° W 12:50:26 37° NNW 12:56:00 10° NE daylight
07 May - 15:04:45 10° NNW 15:06:15 11° N 15:07:41 10° N daylight
07 May - 19:35:55 10° NNW 19:46:56 23° NNE 20:01:23 10° ENE visible
07 May - 21:49:44 10° NW 22:07:51 53° NNE 22:26:30 10° ESE visible
08 May - 00:06:48 10° WNW 00:27:27 74° SW 00:43:19 10° SE visible
08 May - 02:30:30 10° W 02:45:34 29° SW 02:55:42 10° SSE visible
08 May - 11:47:59 10° WSW 11:51:54 72° NNW 11:56:54 10° NE daylight
08 May - 14:04:00 10° NW 14:06:27 12° NNW 14:09:10 10° N daylight
08 May - 18:37:43 10° N 18:45:06 16° NNE 18:55:10 10° NE visible
08 May - 20:50:13 10° NNW 21:05:57 41° NNE 21:24:30 10° E visible
08 May - 23:05:39 10° NW 23:25:55 88° NE 23:43:44 10° SE visible
09 May - 01:26:24 10° W 01:44:43 41° SW 01:57:38 10° SSE visible
09 May - 03:57:57 10° SW 04:03:14 12° SSW 04:06:52 10° S visible
09 May - 10:49:47 10° SW 10:53:38 49° SE 10:57:46 10° ENE daylight
09 May - 13:04:05 10° WNW 13:07:06 17° NNW 13:10:44 10° NNE daylight
09 May - 17:41:37 10° N 17:43:34 11° NNE 17:46:30 10° NNE daylight
09 May - 19:51:17 10° NNW 20:04:10 30° NNE 20:21:04 10° E visible
09 May - 22:05:18 10° NW 22:24:11 71° NE 22:43:23 10° ESE visible
10 May - 00:23:35 10° WNW 00:43:32 55° SW 00:58:56 10° SE visible
10 May - 02:50:22 10° WSW 03:02:21 20° SSW 03:10:40 10° SSE visible
10 May - 09:51:50 10° SSW 09:55:14 22° SSE 09:58:25 10° E daylight
10 May - 12:04:45 10° W 12:08:12 27° NNW 12:12:21 10° NNE daylight
10 May - 18:52:59 10° NNW 19:02:37 22° NNE 19:16:03 10° ENE visible
10 May - 21:05:38 10° NW 21:22:26 55° NE 21:42:05 10° ESE visible
10 May - 23:21:53 10° WNW 23:42:00 72° SW 23:59:38 10° SE visible
11 May - 01:44:59 10° W 02:01:14 30° SSW 02:12:52 10° SSE visible
11 May - 08:54:18 10° S 08:56:25 13° SSE 08:58:26 10° SE daylight
11 May - 11:05:50 10° WSW 11:09:44 55° NW 11:13:55 10° NE daylight
11 May - 17:55:43 10° N 18:01:19 14° NNE 18:09:12 10° NE daylight
11 May - 20:06:34 10° NNW 20:20:52 42° NNE 20:39:38 10° E visible
11 May - 22:21:09 10° NW 22:40:17 89° SW 22:59:39 10° SE visible
12 May - 00:41:10 10° W 00:59:51 41° SSW 01:14:20 10° SSE visible
12 May - 03:11:36 10° SW 03:19:41 14° SSW 03:25:28 10° S visible
12 May - 10:07:08 10° SW 10:11:28 62° SE 10:15:22 10° ENE daylight
12 May - 12:23:20 10° NW 12:24:47 11° NNW 12:26:12 10° N daylight
12 May - 19:08:08 10° NNW 19:19:34 30° NNE 19:35:48 10° E visible
12 May - 21:21:13 10° NW 21:38:36 73° NE 21:58:52 10° ESE visible
